Flag Weather past 2 weeks in Granada, Spain

Now
50 °F

Heavy rain. Partly cloudy.


Feels Like: 48 °F
Forecast: 46 / 56 °F
Wind: 6 mph from Southeast

Location: Granada / Aeropuerto

Current Time: Nov 28, 2014 at 12:17:04 AM

Latest Report: Nov 27, 2014 at 11:00 PM


Visibility: N/A

Pressure: 29.42 "Hg

Humidity: 88%

Dew point: 46 °F

Location of GranadaLocation

Historic Weather in Granada — Graph

°F

Granada temperature yesterday

Maximum temperature yesterday: 57 °F (at 2:00 PM)
Minimum temperature yesterday: 50 °F (at 6:00 AM)
Average temperature yesterday: 52 °F

Past Weeks' High & Low Weather Summary

 TemperatureHumidityPressure
High75 °F (Nov 22, 5:00 PM)100% (Nov 12, 11:00 PM)30.12 "Hg (Nov 12, 11:00 PM)
Low32 °F (Nov 18, 7:00 AM)23% (Nov 22, 7:30 PM)29.42 "Hg (Nov 27, 9:30 PM)
Average57 °F74%29.94 "Hg
* Reported Nov 12 11:00 PM — Nov 27 11:00 PM, Granada, Weather by CustomWeather, © 2014

Note: Actual official high and low records may vary slightly from our data, if they occured in-between our weather recording intervals... More about our weather records

Advertising

Granada weather history for previous 24 hours

 ConditionsComfort  
Time TempWeatherWind HumidityBarometerVisibility
11:00 PM
Nov 27
50 °FHeavy rain. Partly cloudy.6 mph88%29.42 "HgN/A
10:47 PM50 °FHeavy rain. Partly cloudy.10 mph88%29.42 "HgN/A
10:30 PM52 °FPassing clouds.12 mph82%29.42 "HgN/A
10:00 PM52 °FPassing clouds.12 mph77%29.42 "HgN/A
9:30 PM52 °FPassing clouds.12 mph77%29.42 "HgN/A
9:00 PM52 °FPassing clouds.8 mph77%29.45 "HgN/A
8:30 PM50 °FPassing clouds.7 mph82%29.45 "HgN/A
8:00 PM50 °FPassing clouds.9 mph88%29.45 "HgN/A
7:30 PM52 °FPassing clouds.9 mph82%29.47 "HgN/A
7:00 PM50 °FPassing clouds.7 mph88%29.47 "HgN/A
6:30 PM52 °FPassing clouds.6 mph77%29.47 "HgN/A
6:00 PM52 °FPassing clouds.10 mph72%29.47 "HgN/A
5:30 PM52 °FScattered clouds.5 mph88%29.50 "HgN/A
5:00 PM50 °FScattered clouds.1 mph88%29.50 "HgN/A
4:30 PM50 °FBroken clouds.2 mph94%29.50 "HgN/A
4:00 PM50 °FHeavy rain. Broken clouds.7 mph94%29.53 "Hg5 mi
3:30 PM50 °FThunderstorms. Scattered clouds.7 mph94%29.53 "Hg5 mi
3:00 PM52 °FRain. Scattered clouds.9 mph94%29.53 "HgN/A
2:30 PM54 °FScattered clouds.7 mph82%29.53 "HgN/A
2:00 PM57 °FScattered clouds.9 mph72%29.53 "HgN/A
1:30 PM55 °FScattered clouds.1 mph88%29.53 "HgN/A
1:00 PM54 °FScattered clouds.1 mph94%29.56 "HgN/A
12:30 PM52 °FScattered clouds.No wind94%29.59 "HgN/A
12:00 PM52 °FRain. Scattered clouds.No wind94%29.62 "HgN/A
11:46 AM52 °FRain. Scattered clouds.1 mph94%29.62 "Hg4 mi
11:30 AM52 °FScattered clouds.6 mph94%29.62 "HgN/A
11:00 AM52 °FHeavy rain. Scattered clouds.3 mph88%29.65 "HgN/A
10:30 AM50 °FHeavy rain. Scattered clouds.1 mph100%29.65 "Hg4 mi
10:00 AM52 °FHeavy rain. Scattered clouds.3 mph94%29.65 "Hg4 mi
9:00 AM52 °FRain. Scattered clouds.6 mph88%29.65 "HgN/A
8:30 AM54 °FScattered clouds.12 mph82%29.62 "HgN/A
8:00 AM55 °FPassing clouds.12 mph72%29.62 "HgN/A
7:00 AM55 °FPassing clouds.5 mph72%29.62 "HgN/A
6:30 AM52 °FPassing clouds.1 mph82%29.62 "HgN/A
6:00 AM50 °FPassing clouds.No wind88%29.65 "HgN/A
Weather by CustomWeather, © 2014

See weather overviewHow to use our weather pages